Regional Weather Roundup
Issued by NWS Newport/Morehead, NC

Current Version | Previous Version | Graphics & Text | Print | Product List | Glossary On
Versions: 1 2 3 4 5 6 7 8 9 10 11 12 13 14 15 16 17 18 19 20 21 22 23 24 25 26 27 28 29 30 31 32 33 34 35 36 37 38 39 40 41 42 43 44 45 46 47 48 49 50
000 ASUS42 KMHX 270712 RWRMHX WEATHER ROUNDUP FOR EASTERN NORTH CAROLINA NATIONAL WEATHER SERVICE NEWPORT/MOREHEAD CITY NC 200 AM EST FRI FEB 27 2015 NOTE: "FAIR" INDICATES FEW OR NO CLOUDS BELOW 12,000 FEET WITH NO SIGNIFICANT WEATHER AND/OR OBSTRUCTIONS TO VISIBILITY NCZ015>017-031-032-045>047-102-103-270800- NORTH COAST CITY SKY/WX TMP DP RH WIND PRES REMARKS EDENTON MOCLDY 31 29 90 N3 30.18S ELIZABETH CITY N/A 31 26 82 N7 30.18 KITTY HAWK CLOUDY 33 29 85 N6 30.15R MANTEO CLOUDY 34 28 80 N9 30.17R $$ NCZ045>047-081-094-103-104-270800- CENTRAL COAST CITY SKY/WX TMP DP RH WIND PRES REMARKS FRISCO CLOUDY 34 30 85 N7G17 30.14R SWANQUARTER N/A N/A N/A N/A N5 30.12S $$ NCZ095-097-098-100-101-270800- SOUTHERN COAST CITY SKY/WX TMP DP RH WIND PRES REMARKS BEAUFORT CLOUDY 34 31 88 N9 30.16R CEDAR ISLAND N/A 34 N/A N/A N14 30.18S JACKSONVILLE CLOUDY 34 30 85 N6 30.17R PINEY ISLAND N/A N/A N/A N/A MISG 30.16R WILMINGTON CLOUDY 35 32 88 N3 30.17R $$ NCZ011>013-027>030-043-044-078>080-089-090>093-098-270800- COASTAL PLAIN CITY SKY/WX TMP DP RH WIND PRES REMARKS AHOSKIE N/A 27 26 97 CALM 30.20R FOG CLINTON CLOUDY 32 32 100 CALM 30.19R ELIZABETHTOWN CLOUDY 34 32 92 CALM 30.18R GOLDSBORO MOCLDY 32 31 99 CALM 30.16R GREENVILLE MOCLDY 32 32 100 CALM 30.19S FOG HAVELOCK CLOUDY 34 29 82 N8 30.18R KENANSVILLE CLOUDY 33 32 96 CALM 30.18R KINSTON CLOUDY 32 32 97 N3 30.18S FOG NEW BERN CLOUDY 34 30 85 N8 30.18R RICHLANDS CLOUDY 34 28 80 N3 30.17S ROCKY MOUNT FOG 29 28 96 CALM 30.19R VSB 1/2 WASHINGTON MOCLDY 32 31 95 CALM 30.18S WHITEVILLE CLOUDY 34 32 93 CALM 30.18R $$ AMZ130-135-150-152-154-156-158-170-250-252-270-ANZ085-086-088-633-658-670-270800- MARINE OBSERVATIONS STATION/POSITION TIME TEMP WIND PRES WAVE SWELL AIR SEA DIR/SP/G HT/PER HT/PER (UTC) (F) (DEG/KT/KT) (MB) (FT/S) (FT/S) CHESAPEAKE LIGHT 0600 32 360/ 13/ 14 1022.2 64 E VA BEACH 0650 42 60 10/ 17/ 23 1019.6 10/10 8/10 DUCK 0618 33 34 10/ 15/ 18 1020.0 2 E DUCK 0611 35 N/A 8/11 5/11 10 NE DUCK 0622 36 N/A 9/11 5/11 OREGON INLET 0618 33 37 340/ 8/ 12 1020.6 HATTERAS CG 0612 34 40 350/ 18/ 22 1020.3 CAPE LOOKOUT 0700 35 350/ 12/ 13 1021.0 BEAUFORT LAB 0600 35 40 360/ 10/ 14 1019.9 27 SE WRIGHTSVLE NOT AVBL 5 SE WRIGHTSVLE NOT AVBL 225 S CAPE HAT 0650 62 70 320/ 12/ 16 1017.0 9/ 9 8/ 9 41 SE CHARLESTON 0650 46 65 10/ 14/ 17 1020.3 5/ 8 3/ 8 $$

USA.gov is the U.S. government's official web portal to all federal, state and local government web resources and services.